User: anonymous   Login
Location: Blanot
(47.1713°N, 4.2340°E)
Time: 03:28:20
(UTC+00:00)
Language:

Cosmos 1241 Rocket - Orbit

View from above orbital plane
View from above orbital plane
View from above satellite
View from above satellite

Ground track
Ground track

The orbit data is extracted from the following two-line orbital elements,

1 12150U 81006B   20266.91716289 -.00000065 +00000-0 +16135-4 0  9995
2 12150 065.8238 351.2620 0056376 330.3524 029.4347 13.77139179993412
Epoch (UTC): 22 September 2020 22:00:42
Eccentricity: 0.0056376
inclination: 65.8238°
perigee height: 932 km
apogee height: 1015 km
right ascension of ascending node: 351.2620°
argument of perigee: 330.3524°
revolutions per day: 13.77139179
mean anomaly at epoch: 29.4347°
orbit number at epoch: 99341

The dashed part of the orbit path shows where the satellite is in the earth's shadow,  

DLR